Zurück zum Katalog

CZ-6A DEB

AktivPO
NORAD 61423·DEBRIS·🇨🇳 China

Gestartet Aug 6, 2024 von Taiyuan Satellite Launch Center

Loading…

Nächste Überflüge (nächste 24 Stunden)

TLE

AktuellSource: Space-Track

Epoche: Sep 14, 2026, 05:08 UTC

1 61423U 24140YQ  26257.21425164  .00002049  00000-0  43882-3 0  9997
2 61423  88.8257 243.6034 0129110   2.3085 357.8690 14.53239393109246

Verfolge CZ-6A DEB in Echtzeit mit AllMySat

Download on the App Store